Time,TemperatureF,DewpointF,PressureIn,WindDirection,WindDirectionDegrees,WindSpeedMPH,WindSpeedGustMPH,Humidity,HourlyPrecipIn,Conditions,Clouds,dailyrainin,SoftwareType,DateUTC
2013-02-21 00:05:00,20.0,17.8,29.38,ENE,78,0.0,9.0,91,0.00,,,0.00,Wunderground v.1.15,2013-02-21 07:05:00,
2013-02-21 00:10:00,20.0,17.8,29.38,ENE,78,0.0,9.0,91,0.00,,,0.00,Wunderground v.1.15,2013-02-21 07:10:00,
2013-02-21 00:15:00,19.8,17.6,29.37,ENE,78,0.0,9.0,91,0.00,,,0.00,Wunderground v.1.15,2013-02-21 07:15:00,
2013-02-21 00:20:00,19.6,17.1,29.37,ENE,78,0.0,9.0,90,0.00,,,0.00,Wunderground v.1.15,2013-02-21 07:20:00,
2013-02-21 00:25:00,19.3,16.8,29.37,ENE,78,0.0,9.0,90,0.00,,,0.00,Wunderground v.1.15,2013-02-21 07:25:00,
2013-02-21 00:30:00,19.0,16.6,29.37,ENE,78,0.0,9.0,90,0.00,,,0.00,Wunderground v.1.15,2013-02-21 07:30:00,
2013-02-21 00:35:00,18.6,15.9,29.37,ENE,78,0.0,9.0,89,0.00,,,0.00,Wunderground v.1.15,2013-02-21 07:35:00,
2013-02-21 00:40:00,18.3,15.6,29.37,ENE,78,0.0,9.0,89,0.00,,,0.00,Wunderground v.1.15,2013-02-21 07:40:00,
2013-02-21 00:45:00,17.9,15.2,29.37,ENE,78,0.0,9.0,89,0.00,,,0.00,Wunderground v.1.15,2013-02-21 07:45:00,
2013-02-21 00:50:00,17.5,14.6,29.36,ENE,78,0.0,9.0,88,0.00,,,0.00,Wunderground v.1.15,2013-02-21 07:50:00,
2013-02-21 01:00:00,16.6,13.7,29.37,ENE,78,0.0,9.0,88,0.00,,,0.00,Wunderground v.1.15,2013-02-21 08:00:00,
2013-02-21 01:05:00,16.0,13.1,29.37,ENE,78,0.0,9.0,88,0.00,,,0.00,Wunderground v.1.15,2013-02-21 08:05:00,
2013-02-21 01:15:00,15.1,12.2,29.37,ENE,78,0.0,9.0,88,0.00,,,0.00,Wunderground v.1.15,2013-02-21 08:15:00,
2013-02-21 01:20:00,14.8,12.1,29.37,ENE,78,0.0,9.0,89,0.00,,,0.00,Wunderground v.1.15,2013-02-21 08:20:00,
2013-02-21 01:25:00,14.7,12.0,29.37,ENE,78,0.0,9.0,89,0.00,,,0.00,Wunderground v.1.15,2013-02-21 08:25:00,
2013-02-21 01:30:00,14.5,11.9,29.37,ENE,78,0.0,9.0,89,0.00,,,0.00,Wunderground v.1.15,2013-02-21 08:30:00,
2013-02-21 01:35:00,14.3,11.7,29.37,ENE,78,0.0,9.0,89,0.00,,,0.00,Wunderground v.1.15,2013-02-21 08:35:00,
2013-02-21 01:40:00,14.1,11.5,29.37,ENE,78,0.0,9.0,89,0.00,,,0.00,Wunderground v.1.15,2013-02-21 08:40:00,
2013-02-21 01:45:00,13.9,11.3,29.37,ENE,78,0.0,9.0,89,0.00,,,0.00,Wunderground v.1.15,2013-02-21 08:45:00,
2013-02-21 01:50:00,13.8,11.2,29.37,ENE,78,0.0,9.0,89,0.00,,,0.00,Wunderground v.1.15,2013-02-21 08:50:00,
2013-02-21 01:55:00,13.6,10.7,29.37,ENE,78,0.0,9.0,88,0.00,,,0.00,Wunderground v.1.15,2013-02-21 08:55:00,
2013-02-21 02:00:00,13.3,10.7,29.37,ENE,78,0.0,9.0,89,0.00,,,0.00,Wunderground v.1.15,2013-02-21 09:00:00,
2013-02-21 02:05:00,13.1,10.5,29.36,ENE,78,0.0,9.0,89,0.00,,,0.00,Wunderground v.1.15,2013-02-21 09:05:00,
2013-02-21 02:10:00,12.8,10.2,29.37,ENE,78,0.0,9.0,89,0.00,,,0.00,Wunderground v.1.15,2013-02-21 09:10:00,
2013-02-21 02:15:00,12.7,10.1,29.37,ENE,78,0.0,9.0,89,0.00,,,0.00,Wunderground v.1.15,2013-02-21 09:15:00,
2013-02-21 02:20:00,12.6,10.0,29.37,ENE,78,0.0,9.0,89,0.00,,,0.00,Wunderground v.1.15,2013-02-21 09:20:00,
2013-02-21 02:25:00,12.3,9.7,29.37,ENE,78,0.0,9.0,89,0.00,,,0.00,Wunderground v.1.15,2013-02-21 09:25:00,
2013-02-21 02:30:00,12.2,9.6,29.37,ENE,78,0.0,9.0,89,0.00,,,0.00,Wunderground v.1.15,2013-02-21 09:30:00,
2013-02-21 02:35:00,12.0,9.4,29.36,ENE,78,0.0,9.0,89,0.00,,,0.00,Wunderground v.1.15,2013-02-21 09:35:00,
2013-02-21 02:40:00,11.9,9.3,29.37,ENE,78,0.0,9.0,89,0.00,,,0.00,Wunderground v.1.15,2013-02-21 09:40:00,
2013-02-21 02:45:00,11.7,9.1,29.37,ENE,78,0.0,9.0,89,0.00,,,0.00,Wunderground v.1.15,2013-02-21 09:45:00,
2013-02-21 02:50:00,11.7,9.1,29.37,ENE,78,0.0,9.0,89,0.00,,,0.00,Wunderground v.1.15,2013-02-21 09:50:00,
2013-02-21 02:55:00,11.5,8.9,29.37,ENE,78,0.0,9.0,89,0.00,,,0.00,Wunderground v.1.15,2013-02-21 09:55:00,
2013-02-21 03:00:00,11.7,9.3,29.37,ENE,78,0.0,9.0,90,0.00,,,0.00,Wunderground v.1.15,2013-02-21 10:00:00,
2013-02-21 03:10:00,12.1,10.0,29.37,ENE,78,0.0,9.0,91,0.00,,,0.00,Wunderground v.1.15,2013-02-21 10:10:00,
2013-02-21 03:15:00,12.5,10.6,29.37,ENE,78,0.0,9.0,92,0.00,,,0.00,Wunderground v.1.15,2013-02-21 10:15:00,
2013-02-21 03:20:00,12.9,11.0,29.37,ENE,78,0.0,9.0,92,0.00,,,0.00,Wunderground v.1.15,2013-02-21 10:20:00,
2013-02-21 03:25:00,13.2,11.3,29.37,ENE,78,0.0,9.0,92,0.00,,,0.00,Wunderground v.1.15,2013-02-21 10:25:00,
2013-02-21 03:30:00,13.5,11.6,29.37,ENE,78,0.0,9.0,92,0.00,,,0.00,Wunderground v.1.15,2013-02-21 10:30:00,
2013-02-21 03:35:00,13.8,12.2,29.37,ENE,78,0.0,9.0,93,0.00,,,0.00,Wunderground v.1.15,2013-02-21 10:35:00,
2013-02-21 03:45:00,14.8,13.4,29.37,ENE,78,0.0,9.0,94,0.00,,,0.00,Wunderground v.1.15,2013-02-21 10:45:00,
2013-02-21 03:50:00,15.4,14.0,29.37,ENE,78,0.0,9.0,94,0.00,,,0.00,Wunderground v.1.15,2013-02-21 10:50:00,
2013-02-21 03:55:00,16.0,14.8,29.37,ENE,78,0.0,9.0,95,0.00,,,0.00,Wunderground v.1.15,2013-02-21 10:55:00,
2013-02-21 04:00:00,16.6,15.4,29.38,ENE,78,0.0,9.0,95,0.00,,,0.00,Wunderground v.1.15,2013-02-21 11:00:00,
2013-02-21 04:05:00,17.1,15.9,29.38,ENE,78,0.0,9.0,95,0.00,,,0.00,Wunderground v.1.15,2013-02-21 11:05:00,
2013-02-21 04:10:00,17.4,16.2,29.38,ENE,78,0.0,9.0,95,0.00,,,0.00,Wunderground v.1.15,2013-02-21 11:10:00,
2013-02-21 04:15:00,17.6,16.4,29.38,ENE,78,0.0,9.0,95,0.00,,,0.00,Wunderground v.1.15,2013-02-21 11:15:00,
2013-02-21 04:20:00,17.8,16.4,29.38,ENE,78,0.0,9.0,94,0.00,,,0.00,Wunderground v.1.15,2013-02-21 11:20:00,
2013-02-21 04:30:00,18.1,16.7,29.39,ENE,78,0.0,9.0,94,0.00,,,0.00,Wunderground v.1.15,2013-02-21 11:30:00,
2013-02-21 04:35:00,18.2,16.8,29.39,ENE,78,0.0,9.0,94,0.00,,,0.00,Wunderground v.1.15,2013-02-21 11:35:00,
2013-02-21 04:40:00,18.3,16.9,29.40,ENE,78,0.0,9.0,94,0.00,,,0.00,Wunderground v.1.15,2013-02-21 11:40:00,
2013-02-21 04:50:00,18.6,17.2,29.40,ENE,78,0.0,9.0,94,0.00,,,0.00,Wunderground v.1.15,2013-02-21 11:50:00,
2013-02-21 04:55:00,18.6,17.2,29.40,ENE,78,0.0,9.0,94,0.00,,,0.00,Wunderground v.1.15,2013-02-21 11:55:00,
2013-02-21 05:00:00,18.7,17.0,29.40,ENE,78,0.0,9.0,93,0.00,,,0.00,Wunderground v.1.15,2013-02-21 12:00:00,
2013-02-21 05:05:00,18.8,17.1,29.41,ENE,78,0.0,9.0,93,0.00,,,0.00,Wunderground v.1.15,2013-02-21 12:05:00,
2013-02-21 05:10:00,18.8,17.1,29.41,ENE,78,0.0,9.0,93,0.00,,,0.00,Wunderground v.1.15,2013-02-21 12:10:00,
2013-02-21 05:15:00,18.8,17.1,29.41,ENE,78,0.0,9.0,93,0.00,,,0.00,Wunderground v.1.15,2013-02-21 12:15:00,
2013-02-21 05:20:00,18.8,17.1,29.41,ENE,78,0.0,9.0,93,0.00,,,0.00,Wunderground v.1.15,2013-02-21 12:20:00,
2013-02-21 05:25:00,18.8,17.1,29.41,ENE,78,0.0,9.0,93,0.00,,,0.00,Wunderground v.1.15,2013-02-21 12:25:00,
2013-02-21 05:30:00,18.8,17.1,29.41,ENE,78,0.0,9.0,93,0.00,,,0.00,Wunderground v.1.15,2013-02-21 12:30:00,
2013-02-21 05:35:00,18.8,16.9,29.41,ENE,78,0.0,9.0,92,0.00,,,0.00,Wunderground v.1.15,2013-02-21 12:35:00,
2013-02-21 05:40:00,18.8,16.9,29.41,ENE,78,0.0,9.0,92,0.00,,,0.00,Wunderground v.1.15,2013-02-21 12:40:00,
2013-02-21 05:45:00,18.8,16.9,29.42,ENE,78,0.0,9.0,92,0.00,,,0.00,Wunderground v.1.15,2013-02-21 12:45:00,
2013-02-21 05:50:00,18.8,16.9,29.42,ENE,78,0.0,9.0,92,0.00,,,0.00,Wunderground v.1.15,2013-02-21 12:50:00,
2013-02-21 05:55:00,18.8,16.9,29.42,ENE,78,0.0,9.0,92,0.00,,,0.00,Wunderground v.1.15,2013-02-21 12:55:00,
2013-02-21 06:00:00,18.8,16.9,29.42,ENE,78,0.0,9.0,92,0.00,,,0.00,Wunderground v.1.15,2013-02-21 13:00:00,
2013-02-21 06:05:00,18.8,16.9,29.42,ENE,78,0.0,9.0,92,0.00,,,0.00,Wunderground v.1.15,2013-02-21 13:05:00,
2013-02-21 06:10:00,18.8,16.9,29.42,ENE,78,0.0,9.0,92,0.00,,,0.00,Wunderground v.1.15,2013-02-21 13:10:00,
2013-02-21 06:15:00,18.8,16.9,29.42,ENE,78,0.0,9.0,92,0.00,,,0.00,Wunderground v.1.15,2013-02-21 13:15:00,
2013-02-21 06:20:00,18.8,16.9,29.42,ENE,78,0.0,9.0,92,0.00,,,0.00,Wunderground v.1.15,2013-02-21 13:20:00,
2013-02-21 06:25:00,18.8,16.9,29.42,ENE,78,0.0,9.0,92,0.00,,,0.00,Wunderground v.1.15,2013-02-21 13:25:00,
2013-02-21 06:35:00,18.7,16.8,29.42,ENE,78,0.0,9.0,92,0.00,,,0.00,Wunderground v.1.15,2013-02-21 13:35:00,
2013-02-21 06:40:00,18.8,16.9,29.42,ENE,78,0.0,9.0,92,0.00,,,0.00,Wunderground v.1.15,2013-02-21 13:40:00,
2013-02-21 06:45:00,18.8,16.9,29.43,ENE,78,0.0,9.0,92,0.00,,,0.00,Wunderground v.1.15,2013-02-21 13:45:00,
2013-02-21 06:50:00,18.7,16.8,29.43,ENE,78,0.0,9.0,92,0.00,,,0.00,Wunderground v.1.15,2013-02-21 13:50:00,
2013-02-21 07:00:00,18.5,16.6,29.44,ENE,78,0.0,9.0,92,0.00,,,0.00,Wunderground v.1.15,2013-02-21 14:00:00,
2013-02-21 07:05:00,18.4,16.5,29.44,ENE,78,0.0,9.0,92,0.00,,,0.00,Wunderground v.1.15,2013-02-21 14:05:00,
2013-02-21 07:10:00,18.3,16.1,29.44,ENE,78,0.0,9.0,91,0.00,,,0.00,Wunderground v.1.15,2013-02-21 14:10:00,
2013-02-21 07:20:00,18.1,15.9,29.44,ENE,78,0.0,9.0,91,0.00,,,0.00,Wunderground v.1.15,2013-02-21 14:20:00,
2013-02-21 07:30:00,18.1,15.9,29.45,ENE,78,0.0,9.0,91,0.00,,,0.00,Wunderground v.1.15,2013-02-21 14:30:00,
2013-02-21 07:35:00,18.1,15.9,29.45,ENE,78,0.0,9.0,91,0.00,,,0.00,Wunderground v.1.15,2013-02-21 14:35:00,
2013-02-21 07:40:00,18.2,16.0,29.45,ENE,78,0.0,9.0,91,0.00,,,0.00,Wunderground v.1.15,2013-02-21 14:40:00,
2013-02-21 07:50:00,18.3,16.1,29.46,ENE,78,0.0,9.0,91,0.00,,,0.00,Wunderground v.1.15,2013-02-21 14:50:00,
2013-02-21 07:55:00,18.4,16.5,29.46,ENE,78,0.0,9.0,92,0.00,,,0.00,Wunderground v.1.15,2013-02-21 14:55:00,
2013-02-21 08:05:00,18.7,16.5,29.47,ENE,78,0.0,9.0,91,0.00,,,0.00,Wunderground v.1.15,2013-02-21 15:05:00,
2013-02-21 08:10:00,18.8,16.6,29.47,ENE,78,0.0,9.0,91,0.00,,,0.00,Wunderground v.1.15,2013-02-21 15:10:00,
2013-02-21 08:15:00,19.0,16.8,29.47,ENE,78,0.0,9.0,91,0.00,,,0.00,Wunderground v.1.15,2013-02-21 15:15:00,
2013-02-21 08:20:00,19.3,17.1,29.47,ENE,78,0.0,9.0,91,0.00,,,0.00,Wunderground v.1.15,2013-02-21 15:20:00,
2013-02-21 08:25:00,19.5,19.5,29.48,ENE,78,0.0,9.0,100,0.00,,,0.00,Wunderground v.1.15,2013-02-21 15:25:00,
2013-02-21 08:35:00,20.0,17.8,29.48,ENE,78,0.0,9.0,91,0.00,,,0.00,Wunderground v.1.15,2013-02-21 15:35:00,
2013-02-21 08:45:00,20.4,17.7,29.48,ENE,78,0.0,9.0,89,0.00,,,0.00,Wunderground v.1.15,2013-02-21 15:45:00,
2013-02-21 08:50:00,20.5,17.8,29.48,ENE,78,0.0,9.0,89,0.00,,,0.00,Wunderground v.1.15,2013-02-21 15:50:00,
2013-02-21 08:55:00,20.7,18.0,29.48,ENE,78,0.0,9.0,89,0.00,,,0.00,Wunderground v.1.15,2013-02-21 15:55:00,
2013-02-21 09:00:00,20.9,18.2,29.48,ENE,78,0.0,9.0,89,0.00,,,0.00,Wunderground v.1.15,2013-02-21 16:00:00,
2013-02-21 09:05:00,21.1,18.1,29.48,ENE,78,0.0,9.0,88,0.00,,,0.00,Wunderground v.1.15,2013-02-21 16:05:00,
2013-02-21 09:15:00,21.5,18.2,29.49,ENE,78,0.0,9.0,87,0.00,,,0.00,Wunderground v.1.15,2013-02-21 16:15:00,
2013-02-21 09:20:00,21.9,18.6,29.49,ENE,78,0.0,9.0,87,0.00,,,0.00,Wunderground v.1.15,2013-02-21 16:20:00,
2013-02-21 09:25:00,22.2,18.7,29.49,ENE,78,0.0,9.0,86,0.00,,,0.00,Wunderground v.1.15,2013-02-21 16:25:00,
2013-02-21 09:30:00,22.1,18.3,29.49,ENE,78,0.0,9.0,85,0.00,,,0.00,Wunderground v.1.15,2013-02-21 16:30:00,
2013-02-21 09:35:00,21.7,17.9,29.49,ENE,78,0.0,9.0,85,0.00,,,0.00,Wunderground v.1.15,2013-02-21 16:35:00,
2013-02-21 09:40:00,21.6,18.1,29.49,ENE,78,0.0,9.0,86,0.00,,,0.00,Wunderground v.1.15,2013-02-21 16:40:00,
2013-02-21 09:50:00,22.1,18.6,29.49,ENE,78,0.0,9.0,86,0.00,,,0.00,Wunderground v.1.15,2013-02-21 16:50:00,
2013-02-21 09:55:00,22.1,18.3,29.50,WNW,299,0.0,9.0,85,0.00,,,0.00,Wunderground v.1.15,2013-02-21 16:55:00,
2013-02-21 10:00:00,22.1,18.3,29.50,WNW,286,0.0,9.0,85,0.00,,,0.00,Wunderground v.1.15,2013-02-21 17:00:00,
2013-02-21 10:10:00,22.7,19.1,29.50,WNW,286,0.0,9.0,86,0.00,,,0.00,Wunderground v.1.15,2013-02-21 17:10:00,
2013-02-21 10:20:00,23.4,19.3,29.50,WNW,285,0.0,9.0,84,0.00,,,0.00,Wunderground v.1.15,2013-02-21 17:20:00,
2013-02-21 10:25:00,23.5,19.1,29.50,WNW,285,0.0,9.0,83,0.00,,,0.00,Wunderground v.1.15,2013-02-21 17:25:00,
2013-02-21 10:30:00,23.4,19.3,29.50,WNW,284,0.0,9.0,84,0.00,,,0.00,Wunderground v.1.15,2013-02-21 17:30:00,
2013-02-21 10:35:00,23.3,18.9,29.50,WNW,284,0.0,9.0,83,0.00,,,0.00,Wunderground v.1.15,2013-02-21 17:35:00,
2013-02-21 10:50:00,24.1,19.7,29.50,South,171,0.0,9.0,83,0.00,,,0.00,Wunderground v.1.15,2013-02-21 17:50:00,
2013-02-21 11:00:00,24.4,19.7,29.50,SSE,149,0.0,9.0,82,0.00,,,0.00,Wunderground v.1.15,2013-02-21 18:00:00,
2013-02-21 11:05:00,24.5,19.8,29.50,SSE,149,0.0,9.0,82,0.00,,,0.00,Wunderground v.1.15,2013-02-21 18:05:00,
2013-02-21 11:10:00,24.6,19.9,29.50,SSE,148,0.0,9.0,82,0.00,,,0.00,Wunderground v.1.15,2013-02-21 18:10:00,
2013-02-21 11:15:00,25.2,20.5,29.50,SSE,148,0.0,9.0,82,0.00,,,0.01,Wunderground v.1.15,2013-02-21 18:15:00,
2013-02-21 11:20:00,25.3,20.3,29.51,SE,142,0.0,9.0,81,0.00,,,0.01,Wunderground v.1.15,2013-02-21 18:20:00,
2013-02-21 11:30:00,24.3,19.6,29.51,SE,130,0.0,9.0,82,0.00,,,0.01,Wunderground v.1.15,2013-02-21 18:30:00,
2013-02-21 11:35:00,23.9,19.5,29.51,SE,130,0.0,9.0,83,0.00,,,0.02,Wunderground v.1.15,2013-02-21 18:35:00,
2013-02-21 11:40:00,23.8,19.7,29.51,SE,129,0.0,9.0,84,0.06,,,0.03,Wunderground v.1.15,2013-02-21 18:40:00,
2013-02-21 11:45:00,23.9,19.8,29.51,SE,126,0.0,9.0,84,0.06,,,0.03,Wunderground v.1.15,2013-02-21 18:45:00,
2013-02-21 11:50:00,23.9,20.0,29.51,SE,126,0.0,9.0,85,0.06,,,0.03,Wunderground v.1.15,2013-02-21 18:50:00,
2013-02-21 11:55:00,24.0,19.9,29.51,East,92,0.0,9.0,84,0.04,,,0.03,Wunderground v.1.15,2013-02-21 18:55:00,
2013-02-21 12:00:00,24.1,20.2,29.51,ESE,115,0.0,9.0,85,0.00,,,0.04,Wunderground v.1.15,2013-02-21 19:00:00,
2013-02-21 12:05:00,24.2,20.3,29.51,ENE,78,0.0,9.0,85,0.00,,,0.04,Wunderground v.1.15,2013-02-21 19:05:00,
2013-02-21 12:10:00,24.2,19.8,29.51,ENE,78,0.0,9.0,83,0.00,,,0.04,Wunderground v.1.15,2013-02-21 19:10:00,
2013-02-21 12:15:00,24.4,20.3,29.51,ESE,122,0.0,9.0,84,0.04,,,0.05,Wunderground v.1.15,2013-02-21 19:15:00,
2013-02-21 12:25:00,25.0,20.8,29.50,ENE,78,0.0,9.0,84,0.04,,,0.05,Wunderground v.1.15,2013-02-21 19:25:00,
2013-02-21 12:30:00,25.3,20.9,29.50,ENE,78,0.0,9.0,83,0.04,,,0.06,Wunderground v.1.15,2013-02-21 19:30:00,
2013-02-21 12:35:00,25.5,21.3,29.50,ENE,78,0.0,9.0,84,0.04,,,0.06,Wunderground v.1.15,2013-02-21 19:35:00,
2013-02-21 12:40:00,25.8,21.3,29.50,ENE,78,0.0,9.0,83,0.04,,,0.06,Wunderground v.1.15,2013-02-21 19:40:00,
2013-02-21 12:45:00,26.6,21.8,29.50,North,355,0.0,9.0,82,0.05,,,0.07,Wunderground v.1.15,2013-02-21 19:45:00,
2013-02-21 12:50:00,27.0,22.2,29.50,WNW,284,0.0,9.0,82,0.05,,,0.07,Wunderground v.1.15,2013-02-21 19:50:00,
2013-02-21 13:00:00,27.4,22.3,29.49,West,276,0.0,9.0,81,0.00,,,0.07,Wunderground v.1.15,2013-02-21 20:00:00,
2013-02-21 13:05:00,27.7,22.3,29.49,SW,218,0.0,9.0,80,0.00,,,0.08,Wunderground v.1.15,2013-02-21 20:05:00,
2013-02-21 13:10:00,28.9,23.5,29.49,SW,218,0.0,9.0,80,0.00,,,0.08,Wunderground v.1.15,2013-02-21 20:10:00,
2013-02-21 13:15:00,29.1,22.5,29.49,NW,311,0.0,9.0,76,0.04,,,0.08,Wunderground v.1.15,2013-02-21 20:15:00,
2013-02-21 13:25:00,29.3,22.4,29.49,SSW,197,0.0,9.0,75,0.07,,,0.10,Wunderground v.1.15,2013-02-21 20:25:00,
2013-02-21 13:30:00,29.0,23.0,29.49,SSW,197,0.0,9.0,78,0.07,,,0.10,Wunderground v.1.15,2013-02-21 20:30:00,
2013-02-21 13:35:00,29.2,23.2,29.49,NW,316,0.0,9.0,78,0.06,,,0.11,Wunderground v.1.15,2013-02-21 20:35:00,
2013-02-21 13:40:00,29.3,23.0,29.48,NE,44,0.0,9.0,77,0.06,,,0.11,Wunderground v.1.15,2013-02-21 20:40:00,
2013-02-21 13:45:00,29.8,23.2,29.48,ENE,75,0.0,9.0,76,0.05,,,0.11,Wunderground v.1.15,2013-02-21 20:45:00,
2013-02-21 13:50:00,30.2,23.9,29.48,NE,44,0.0,9.0,77,0.05,,,0.12,Wunderground v.1.15,2013-02-21 20:50:00,
2013-02-21 13:55:00,30.7,23.4,29.48,SSW,211,0.0,9.0,74,0.05,,,0.12,Wunderground v.1.15,2013-02-21 20:55:00,
2013-02-21 14:00:00,30.9,23.3,29.48,North,355,0.0,9.0,73,0.05,,,0.13,Wunderground v.1.15,2013-02-21 21:00:00,
2013-02-21 14:05:00,30.6,23.6,29.48,WSW,243,0.0,9.0,75,0.05,,,0.13,Wunderground v.1.15,2013-02-21 21:05:00,
2013-02-21 14:10:00,30.5,23.8,29.49,North,355,0.0,9.0,76,0.05,,,0.13,Wunderground v.1.15,2013-02-21 21:10:00,
2013-02-21 14:15:00,30.5,23.5,29.49,North,355,0.0,9.0,75,0.04,,,0.14,Wunderground v.1.15,2013-02-21 21:15:00,
2013-02-21 14:20:00,30.6,23.3,29.49,NNE,25,0.0,9.0,74,0.04,,,0.14,Wunderground v.1.15,2013-02-21 21:20:00,
2013-02-21 14:25:00,30.7,23.1,29.49,NNW,344,0.0,9.0,73,0.04,,,0.14,Wunderground v.1.15,2013-02-21 21:25:00,
2013-02-21 14:30:00,30.6,22.6,29.49,NNE,23,1.0,9.0,72,0.04,,,0.15,Wunderground v.1.15,2013-02-21 21:30:00,
2013-02-21 14:35:00,30.8,23.5,29.49,NW,311,1.0,9.0,74,0.04,,,0.15,Wunderground v.1.15,2013-02-21 21:35:00,
2013-02-21 14:40:00,31.1,23.5,29.49,NW,307,1.0,1.0,73,0.04,,,0.15,Wunderground v.1.15,2013-02-21 21:40:00,
2013-02-21 14:45:00,31.1,23.5,29.49,NW,325,1.0,9.0,73,0.04,,,0.16,Wunderground v.1.15,2013-02-21 21:45:00,
2013-02-21 14:50:00,31.3,22.3,29.49,West,265,0.0,9.0,69,0.04,,,0.16,Wunderground v.1.15,2013-02-21 21:50:00,
2013-02-21 14:55:00,31.2,23.2,29.49,NW,309,0.0,9.0,72,0.04,,,0.16,Wunderground v.1.15,2013-02-21 21:55:00,
2013-02-21 15:00:00,31.2,22.9,29.49,North,351,0.0,9.0,71,0.05,,,0.17,Wunderground v.1.15,2013-02-21 22:00:00,
2013-02-21 15:10:00,31.8,23.5,29.50,SSW,192,0.0,9.0,71,0.04,,,0.17,Wunderground v.1.15,2013-02-21 22:10:00,
2013-02-21 15:15:00,31.7,23.7,29.50,NW,310,0.0,9.0,72,0.04,,,0.18,Wunderground v.1.15,2013-02-21 22:15:00,
2013-02-21 15:25:00,31.5,23.5,29.50,SE,126,0.0,9.0,72,0.04,,,0.18,Wunderground v.1.15,2013-02-21 22:25:00,
2013-02-21 15:30:00,31.4,23.1,29.50,SE,126,0.0,9.0,71,0.00,,,0.18,Wunderground v.1.15,2013-02-21 22:30:00,
2013-02-21 15:35:00,31.3,24.0,29.50,South,169,0.0,9.0,74,0.00,,,0.19,Wunderground v.1.15,2013-02-21 22:35:00,
2013-02-21 15:40:00,31.0,23.4,29.51,South,179,0.0,9.0,73,0.00,,,0.19,Wunderground v.1.15,2013-02-21 22:40:00,
2013-02-21 15:45:00,30.9,22.9,29.51,ESE,114,0.0,9.0,72,0.00,,,0.19,Wunderground v.1.15,2013-02-21 22:45:00,
2013-02-21 15:55:00,31.0,21.0,29.51,East,88,0.0,9.0,66,0.00,,,0.19,Wunderground v.1.15,2013-02-21 22:55:00,
2013-02-21 16:00:00,30.7,20.3,29.51,NNW,328,0.0,9.0,65,0.00,,,0.19,Wunderground v.1.15,2013-02-21 23:00:00,
2013-02-21 16:10:00,30.2,20.6,29.51,NW,304,0.0,9.0,67,0.00,,,0.20,Wunderground v.1.15,2013-02-21 23:10:00,
2013-02-21 16:15:00,30.1,20.1,29.51,NNW,338,0.0,9.0,66,0.00,,,0.20,Wunderground v.1.15,2013-02-21 23:15:00,
2013-02-21 16:20:00,29.8,19.1,29.51,ESE,123,0.0,9.0,64,0.00,,,0.20,Wunderground v.1.15,2013-02-21 23:20:00,
2013-02-21 16:25:00,29.6,19.3,29.51,SSE,155,1.0,9.0,65,0.00,,,0.20,Wunderground v.1.15,2013-02-21 23:25:00,
2013-02-21 16:30:00,29.2,18.2,29.51,SSE,160,1.0,1.0,63,0.00,,,0.20,Wunderground v.1.15,2013-02-21 23:30:00,
2013-02-21 16:35:00,29.1,20.2,29.51,SSE,160,1.0,9.0,69,0.00,,,0.20,Wunderground v.1.15,2013-02-21 23:35:00,
2013-02-21 16:40:00,28.9,19.3,29.51,NNE,16,0.0,9.0,67,0.00,,,0.20,Wunderground v.1.15,2013-02-21 23:40:00,
2013-02-21 16:50:00,28.7,18.4,29.52,NNW,340,1.0,1.0,65,0.00,,,0.20,Wunderground v.1.15,2013-02-21 23:50:00,
2013-02-21 16:55:00,28.4,18.1,29.52,NNW,343,1.0,9.0,65,0.00,,,0.20,Wunderground v.1.15,2013-02-21 23:55:00,
2013-02-21 17:00:00,28.3,18.0,29.52,ENE,60,0.0,9.0,65,0.00,,,0.20,Wunderground v.1.15,2013-02-22 00:00:00,
2013-02-21 17:05:00,27.8,20.9,29.52,SSW,196,1.0,9.0,75,0.00,,,0.20,Wunderground v.1.15,2013-02-22 00:05:00,
2013-02-21 17:10:00,27.1,20.8,29.53,SSE,159,2.0,2.0,77,0.00,,,0.20,Wunderground v.1.15,2013-02-22 00:10:00,
2013-02-21 17:15:00,26.9,21.3,29.53,SSW,209,1.0,9.0,79,0.00,,,0.20,Wunderground v.1.15,2013-02-22 00:15:00,
2013-02-21 17:20:00,26.6,20.7,29.53,ESE,123,0.0,9.0,78,0.00,,,0.20,Wunderground v.1.15,2013-02-22 00:20:00,
2013-02-21 17:25:00,26.3,21.3,29.54,SE,132,1.0,9.0,81,0.00,,,0.20,Wunderground v.1.15,2013-02-22 00:25:00,
2013-02-21 17:30:00,25.6,20.9,29.54,SE,128,0.0,9.0,82,0.00,,,0.20,Wunderground v.1.15,2013-02-22 00:30:00,
2013-02-21 17:35:00,24.7,20.6,29.54,SSE,160,1.0,9.0,84,0.00,,,0.20,Wunderground v.1.15,2013-02-22 00:35:00,
2013-02-21 17:40:00,24.1,20.2,29.55,SSE,160,0.0,9.0,85,0.00,,,0.20,Wunderground v.1.15,2013-02-22 00:40:00,
2013-02-21 17:50:00,22.7,19.4,29.55,SE,137,1.0,1.0,87,0.00,,,0.20,Wunderground v.1.15,2013-02-22 00:50:00,
2013-02-21 17:55:00,22.4,19.4,29.55,SE,137,0.0,9.0,88,0.00,,,0.20,Wunderground v.1.15,2013-02-22 00:55:00,
2013-02-21 18:00:00,22.0,19.3,29.56,SE,134,0.0,9.0,89,0.00,,,0.20,Wunderground v.1.15,2013-02-22 01:00:00,
2013-02-21 18:05:00,21.5,18.5,29.56,SE,134,0.0,9.0,88,0.00,,,0.20,Wunderground v.1.15,2013-02-22 01:05:00,
2013-02-21 18:10:00,20.9,18.2,29.57,SE,134,0.0,9.0,89,0.00,,,0.20,Wunderground v.1.15,2013-02-22 01:10:00,
2013-02-21 18:15:00,20.4,17.9,29.57,SE,134,0.0,9.0,90,0.00,,,0.20,Wunderground v.1.15,2013-02-22 01:15:00,
2013-02-21 18:20:00,20.0,17.5,29.57,ENE,66,0.0,9.0,90,0.00,,,0.20,Wunderground v.1.15,2013-02-22 01:20:00,
2013-02-21 18:25:00,19.7,17.2,29.58,East,91,0.0,9.0,90,0.00,,,0.20,Wunderground v.1.15,2013-02-22 01:25:00,
2013-02-21 18:30:00,19.5,17.0,29.58,East,92,0.0,9.0,90,0.00,,,0.20,Wunderground v.1.15,2013-02-22 01:30:00,
2013-02-21 18:35:00,19.3,16.8,29.58,East,92,0.0,9.0,90,0.00,,,0.20,Wunderground v.1.15,2013-02-22 01:35:00,
2013-02-21 18:45:00,19.0,16.6,29.59,East,92,0.0,9.0,90,0.00,,,0.20,Wunderground v.1.15,2013-02-22 01:45:00,
2013-02-21 18:55:00,18.6,16.2,29.59,East,92,0.0,9.0,90,0.00,,,0.20,Wunderground v.1.15,2013-02-22 01:55:00,
2013-02-21 19:00:00,18.4,15.7,29.60,East,92,0.0,9.0,89,0.00,,,0.20,Wunderground v.1.15,2013-02-22 02:00:00,
2013-02-21 19:05:00,18.0,15.3,29.60,East,92,0.0,9.0,89,0.00,,,0.20,Wunderground v.1.15,2013-02-22 02:05:00,
2013-02-21 19:10:00,17.8,15.4,29.60,East,92,0.0,9.0,90,0.00,,,0.20,Wunderground v.1.15,2013-02-22 02:10:00,
2013-02-21 19:15:00,17.7,15.5,29.61,East,92,0.0,9.0,91,0.00,,,0.20,Wunderground v.1.15,2013-02-22 02:15:00,
2013-02-21 19:20:00,17.7,15.5,29.61,East,92,0.0,9.0,91,0.00,,,0.20,Wunderground v.1.15,2013-02-22 02:20:00,
2013-02-21 19:25:00,17.7,15.5,29.62,East,92,0.0,9.0,91,0.00,,,0.20,Wunderground v.1.15,2013-02-22 02:25:00,
2013-02-21 19:30:00,17.7,15.8,29.62,East,92,0.0,9.0,92,0.00,,,0.20,Wunderground v.1.15,2013-02-22 02:30:00,
2013-02-21 19:35:00,17.7,15.8,29.63,East,92,0.0,9.0,92,0.00,,,0.20,Wunderground v.1.15,2013-02-22 02:35:00,
2013-02-21 19:40:00,17.8,15.9,29.63,East,92,0.0,9.0,92,0.00,,,0.20,Wunderground v.1.15,2013-02-22 02:40:00,
2013-02-21 19:45:00,17.7,15.8,29.63,East,92,0.0,9.0,92,0.00,,,0.20,Wunderground v.1.15,2013-02-22 02:45:00,
2013-02-21 19:50:00,17.7,15.8,29.63,East,92,0.0,9.0,92,0.00,,,0.20,Wunderground v.1.15,2013-02-22 02:50:00,
2013-02-21 19:55:00,17.7,15.8,29.64,East,92,0.0,9.0,92,0.00,,,0.20,Wunderground v.1.15,2013-02-22 02:55:00,
2013-02-21 20:05:00,17.7,15.8,29.64,East,92,0.0,9.0,92,0.00,,,0.20,Wunderground v.1.15,2013-02-22 03:05:00,
2013-02-21 20:10:00,17.7,15.8,29.65,East,92,0.0,9.0,92,0.00,,,0.20,Wunderground v.1.15,2013-02-22 03:10:00,
2013-02-21 20:15:00,17.8,15.9,29.65,East,92,0.0,9.0,92,0.00,,,0.20,Wunderground v.1.15,2013-02-22 03:15:00,
2013-02-21 20:25:00,17.9,16.0,29.66,East,92,0.0,9.0,92,0.00,,,0.20,Wunderground v.1.15,2013-02-22 03:25:00,
2013-02-21 20:30:00,18.0,16.1,29.66,East,92,0.0,9.0,92,0.00,,,0.20,Wunderground v.1.15,2013-02-22 03:30:00,
2013-02-21 20:35:00,18.0,16.1,29.66,East,92,0.0,9.0,92,0.00,,,0.20,Wunderground v.1.15,2013-02-22 03:35:00,
2013-02-21 20:40:00,17.9,16.0,29.66,East,92,0.0,9.0,92,0.00,,,0.20,Wunderground v.1.15,2013-02-22 03:40:00,
2013-02-21 20:45:00,17.9,15.7,29.67,East,92,0.0,9.0,91,0.00,,,0.20,Wunderground v.1.15,2013-02-22 03:45:00,
2013-02-21 20:50:00,17.8,15.9,29.67,East,92,0.0,9.0,92,0.00,,,0.20,Wunderground v.1.15,2013-02-22 03:50:00,
2013-02-21 20:55:00,17.7,15.5,29.67,East,92,0.0,9.0,91,0.00,,,0.20,Wunderground v.1.15,2013-02-22 03:55:00,
2013-02-21 21:00:00,17.6,15.4,29.67,East,92,0.0,9.0,91,0.00,,,0.20,Wunderground v.1.15,2013-02-22 04:00:00,
2013-02-21 21:05:00,17.5,15.6,29.67,East,92,0.0,9.0,92,0.00,,,0.20,Wunderground v.1.15,2013-02-22 04:05:00,
2013-02-21 21:10:00,17.5,15.6,29.67,East,92,0.0,9.0,92,0.00,,,0.20,Wunderground v.1.15,2013-02-22 04:10:00,
2013-02-21 21:15:00,17.5,15.6,29.67,East,92,0.0,9.0,92,0.00,,,0.20,Wunderground v.1.15,2013-02-22 04:15:00,
2013-02-21 21:20:00,17.4,15.5,29.67,East,92,0.0,9.0,92,0.00,,,0.20,Wunderground v.1.15,2013-02-22 04:20:00,
2013-02-21 21:30:00,17.1,14.9,29.67,East,92,0.0,9.0,91,0.00,,,0.20,Wunderground v.1.15,2013-02-22 04:30:00,
2013-02-21 21:35:00,17.1,15.2,29.67,ENE,67,0.0,9.0,92,0.00,,,0.20,Wunderground v.1.15,2013-02-22 04:35:00,
2013-02-21 21:40:00,17.1,15.2,29.68,ENE,67,0.0,9.0,92,0.00,,,0.20,Wunderground v.1.15,2013-02-22 04:40:00,
2013-02-21 21:50:00,17.3,15.4,29.68,SW,215,0.0,9.0,92,0.00,,,0.20,Wunderground v.1.15,2013-02-22 04:50:00,
2013-02-21 21:55:00,17.3,15.4,29.68,SW,215,0.0,9.0,92,0.00,,,0.20,Wunderground v.1.15,2013-02-22 04:55:00,
2013-02-21 22:00:00,17.3,15.4,29.68,SW,215,0.0,9.0,92,0.00,,,0.20,Wunderground v.1.15,2013-02-22 05:00:00,
2013-02-21 22:05:00,17.2,15.3,29.68,SW,215,0.0,9.0,92,0.00,,,0.20,Wunderground v.1.15,2013-02-22 05:05:00,
2013-02-21 22:10:00,17.1,14.9,29.68,SW,215,0.0,9.0,91,0.00,,,0.20,Wunderground v.1.15,2013-02-22 05:10:00,
2013-02-21 22:15:00,17.1,14.9,29.68,SW,215,0.0,9.0,91,0.00,,,0.20,Wunderground v.1.15,2013-02-22 05:15:00,
2013-02-21 22:20:00,17.0,14.8,29.68,SW,215,0.0,9.0,91,0.00,,,0.20,Wunderground v.1.15,2013-02-22 05:20:00,
2013-02-21 22:25:00,16.8,14.6,29.68,SW,215,0.0,9.0,91,0.00,,,0.20,Wunderground v.1.15,2013-02-22 05:25:00,
2013-02-21 22:35:00,16.4,14.0,29.68,West,271,0.0,9.0,90,0.00,,,0.20,Wunderground v.1.15,2013-02-22 05:35:00,
2013-02-21 22:40:00,16.1,13.7,29.68,West,271,0.0,9.0,90,0.00,,,0.20,Wunderground v.1.15,2013-02-22 05:40:00,
2013-02-21 22:45:00,15.7,13.0,29.69,West,271,0.0,9.0,89,0.00,,,0.20,Wunderground v.1.15,2013-02-22 05:45:00,
2013-02-21 22:50:00,15.5,13.1,29.69,West,271,0.0,9.0,90,0.00,,,0.20,Wunderground v.1.15,2013-02-22 05:50:00,
2013-02-21 22:55:00,15.4,13.0,29.68,West,271,0.0,9.0,90,0.00,,,0.20,Wunderground v.1.15,2013-02-22 05:55:00,
2013-02-21 23:00:00,15.4,13.2,29.68,West,271,0.0,9.0,91,0.00,,,0.20,Wunderground v.1.15,2013-02-22 06:00:00,
2013-02-21 23:05:00,15.4,13.2,29.68,West,271,0.0,9.0,91,0.00,,,0.20,Wunderground v.1.15,2013-02-22 06:05:00,
2013-02-21 23:10:00,15.3,12.9,29.68,West,271,0.0,9.0,90,0.00,,,0.20,Wunderground v.1.15,2013-02-22 06:10:00,
2013-02-21 23:15:00,14.9,12.2,29.68,West,271,0.0,9.0,89,0.00,,,0.20,Wunderground v.1.15,2013-02-22 06:15:00,
2013-02-21 23:25:00,13.8,10.6,29.68,West,271,0.0,9.0,87,0.00,,,0.20,Wunderground v.1.15,2013-02-22 06:25:00,
2013-02-21 23:30:00,13.3,10.4,29.68,West,271,0.0,9.0,88,0.00,,,0.20,Wunderground v.1.15,2013-02-22 06:30:00,
2013-02-21 23:35:00,13.0,10.1,29.68,West,271,0.0,9.0,88,0.00,,,0.20,Wunderground v.1.15,2013-02-22 06:35:00,
2013-02-21 23:40:00,12.8,10.2,29.68,West,271,0.0,9.0,89,0.00,,,0.20,Wunderground v.1.15,2013-02-22 06:40:00,
2013-02-21 23:45:00,12.9,10.5,29.67,West,271,0.0,9.0,90,0.00,,,0.20,Wunderground v.1.15,2013-02-22 06:45:00,
2013-02-21 23:55:00,13.0,10.9,29.68,West,271,0.0,9.0,91,0.00,,,0.20,Wunderground v.1.15,2013-02-22 06:55:00,